Location: Unspecified
(52.4292°N, 19.3359°E)
Time: 15:12:02
(UTC+02:00)

A-11 Canister half - Visible Passes

Search period start: 18 May 2024 00:00
Search period end: 28 May 2024 00:00
Orbit: 1525 x 1683 km, 47.3° (Epoch: 17 May)

Date Brightness Start Highest point End Pass type
(mag) Time Alt. Az. Time Alt. Az. Time Alt. Az.
18 May 9.0 00:37:24 10° WSW 00:46:43 59° SSE 00:56:20 10° E visible
18 May 9.1 02:41:38 10° W 02:51:11 64° S 03:01:02 10° ESE visible
18 May 9.6 22:13:23 10° SSW 22:21:18 31° SE 22:29:24 10° E visible
19 May 9.0 00:15:43 10° WSW 00:24:58 58° SSE 00:34:34 10° E visible
19 May 9.1 02:19:55 10° W 02:29:26 65° S 02:39:16 10° ESE visible
19 May 9.6 21:51:51 10° SSW 21:59:37 30° SE 22:07:34 10° E visible
19 May 9.0 23:54:02 10° WSW 00:03:15 57° SSE 00:12:47 10° E visible
20 May 9.0 01:58:11 10° W 02:07:41 65° S 02:17:30 10° ESE visible
20 May 9.6 21:30:19 10° SSW 21:37:57 29° SE 21:45:45 10° E visible
20 May 9.0 23:32:21 10° SW 23:41:31 56° SSE 23:51:00 10° E visible
21 May 9.0 01:36:27 10° W 01:45:56 65° S 01:55:44 10° ESE visible
21 May 9.4 03:41:06 10° W 03:50:10 45° SSW 03:59:29 10° SE visible
21 May 9.1 23:10:41 10° SW 23:19:48 55° SSE 23:29:13 10° E visible
22 May 9.0 01:14:44 10° W 01:24:11 66° S 01:33:57 10° ESE visible
22 May 9.3 03:19:21 10° W 03:28:26 47° SSW 03:37:48 10° SE visible
22 May 9.1 22:49:00 10° SW 22:58:04 54° SSE 23:07:26 10° E visible
23 May 9.0 00:53:00 10° W 01:02:26 66° S 01:12:11 10° ESE visible
23 May 9.3 02:57:36 10° W 03:06:43 48° SSW 03:16:06 10° SE visible
23 May 9.1 22:27:20 10° SW 22:36:21 53° SSE 22:45:40 10° E visible
24 May 9.0 00:31:18 10° W 00:40:41 66° S 00:50:25 10° ESE visible
24 May 9.2 02:35:51 10° W 02:44:59 49° SSW 02:54:24 10° SE visible
24 May 9.1 22:05:41 10° SW 22:14:38 52° SSE 22:23:52 10° E visible
25 May 9.0 00:09:34 10° W 00:18:56 66° S 00:28:38 10° ESE visible
25 May 9.2 02:14:07 10° W 02:23:16 50° SSW 02:32:42 10° SE visible
25 May 9.2 21:44:01 10° SW 21:52:56 50° SSE 22:02:06 10° E visible
25 May 9.0 23:47:51 10° WSW 23:57:12 66° S 00:06:53 10° E visible
26 May 9.2 01:52:23 10° W 02:01:32 51° SSW 02:10:59 10° SE visible
26 May 9.2 21:22:23 10° SW 21:31:13 49° SSE 21:40:19 10° E visible
26 May 9.0 23:26:08 10° WSW 23:35:27 66° S 23:45:06 10° E visible
27 May 9.1 01:30:39 10° W 01:39:48 52° SSW 01:49:16 10° SE visible
27 May 9.8 03:35:55 10° W 03:43:19 25° SW 03:50:53 10° S visible
27 May 9.0 23:04:25 10° WSW 23:13:43 66° S 23:23:20 10° E visible
